Temperature
25 24 23 22 21 20 20 19 19 19 19 18 18 18 18 18 18 18 18 18 17 17 17 17 17 17 17 17 17 17 18 18 18 18 18 18 18 18 18 18 18 18 18
25 24 23 22 21 20 20 19 19 19 19 18 18 18 18 18 18 18 18 18 17 17 17 17 17 17 17 17 17 17 17 17 17 18 18 18 18 18 18 18 18 18 18
25 24 23 22 22 21 20 19 19 19 19 18 18 18 18 18 18 18 18 18 17 17 17 17 17 17 17 17 17 17 17 17 17 17 17 17 18 18 18 18 18 18 18
26 25 23 23 22 21 20 20 19 19 19 19 18 18 18 18 18 18 18 18 17 17 17 17 17 17 17 17 17 17 17 17 17 17 17 17 17 17 17 18 18 18 17
26 25 24 23 22 21 21 20 20 19 19 19 19 18 18 18 18 18 18 18 17 17 17 17 17 17 17 17 17 17 17 17 17 17 17 17 17 17 17 17 17 17 17
27 26 24 23 23 22 21 20 20 20 19 19 19 18 18 18 18 18 18 18 17 17 17 17 17 17 16 16 16 16 16 16 17 17 17 17 17 17 17 17 17 17 17
27 26 25 23 23 22 21 21 20 20 19 19 19 19 18 18 18 18 18 17 17 17 17 17 17 16 16 16 16 16 16 16 16 16 16 17 16 17 17 17 17 17 17
27 26 25 24 23 22 22 21 20 20 19 19 19 18 18 18 18 18 18 17 17 17 17 17 17 16 16 16 16 16 16 16 16 16 16 16 16 16 16 17 16 16 17
28 27 25 24 23 23 22 21 20 20 19 19 19 18 18 18 18 18 17 17 17 17 17 17 17 16 16 16 16 16 16 16 16 16 16 16 16 16 16 16 16 16 16
28 27 26 25 24 23 22 21 20 20 19 19 19 18 18 18 18 18 17 17 17 17 17 16 16 16 16 16 16 15 15 15 15 16 16 16 16 16 16 16 16 16 16
28 27 26 25 24 23 22 21 20 20 19 19 19 18 18 18 18 18 17 17 17 17 16 16 16 16 16 16 16 15 15 15 15 15 15 15 15 16 15 16 16 16 16
27 27 26 25 24 23 22 21 20 20 19 19 19 18 18 18 18 17 17 17 17 17 16 16 16 16 16 15 15 15 15 15 15 15 15 15 15 15 15 15 15 15 15
27 26 25 24 24 23 22 21 21 20 19 19 19 18 18 18 18 17 17 17 17 17 16 16 16 16 16 15 15 15 15 15 15 15 15 15 15 15 15 15 15 15 15
26 26 25 24 23 23 22 21 21 20 20 19 19 18 18 18 17 17 17 17 17 17 16 16 16 16 15 15 15 15 15 15 15 15 15 15 15 15 15 15 15 15 15
26 25 24 23 23 22 22 21 21 20 20 19 19 18 18 18 17 17 17 17 17 16 16 16 16 15 15 15 15 15 15 15 15 15 14 14 14 14 14 14 14 14 14
25 25 24 23 22 22 21 20 20 20 20 19 19 18 18 18 17 17 17 17 16 16 16 16 15 15 15 15 15 15 15 15 14 14 14 14 14 14 14 14 14 14 14
25 24 23 23 22 21 21 20 20 19 19 19 18 18 18 18 17 17 17 16 16 16 16 15 15 15 15 15 15 15 15 14 14 14 14 14 14 14 14 14 14 14 14
24 23 23 22 22 21 21 20 19 19 19 18 18 18 17 17 17 17 16 16 16 16 16 15 15 15 15 15 15 15 14 14 14 14 14 14 14 14 14 14 14 14 14
24 23 23 22 22 21 20 19 19 19 18 18 18 17 17 17 17 17 16 16 16 16 15 15 15 15 15 15 14 14 14 14 14 14 14 14 14 14 13 13 13 13 13
23 23 22 22 21 20 20 19 18 18 18 18 17 17 17 17 17 16 16 16 16 16 15 15 15 14 14 14 14 14 14 14 13 13 13 13 13 13 13 13 13 13 13
23 22 22 21 21 20 19 19 18 18 18 17 17 17 17 17 17 16 16 16 16 15 15 15 14 14 14 14 14 14 14 13 13 13 13 13 13 13 13 13 12 12 12
22 21 21 20 20 19 19 19 18 18 17 17 17 17 17 16 16 16 16 16 15 15 15 15 15 14 14 14 14 14 14 13 13 13 13 13 13 13 13 13 13 12 12
21 21 20 20 19 19 19 18 18 17 17 17 17 16 16 16 16 16 16 16 15 15 15 15 15 14 14 14 14 14 13 13 13 13 13 12 12 12 12 12 12 12 12
21 20 20 19 19 19 18 18 17 17 17 16 16 16 16 16 16 16 16 15 15 15 15 15 14 14 14 14 14 13 13 13 12 12 12 12 12 12 12 12 12 12 12
19 19 19 19 18 18 18 17 17 17 16 16 16 16 16 16 16 15 15 15 15 15 15 15 14 14 14 13 13 13 13 12 12 12 12 12 12 12 12 12 12 12 12
19 19 18 18 18 18 17 17 17 16 16 16 16 16 16 16 15 15 15 15 15 15 15 14 14 14 14 13 13 13 13 12 12 12 12 12 12 12 12 12 12 12 12
Wind_Speed
10 10 11 11 10 9 7 6 5 4 3 2 2 2 1 1 1 1 2 1 0 0 1 2 1 1 1 1 2 2 2 1 1 2 2 2 3 3 3 3 2 4 6
11 10 10 10 10 9 8 7 5 5 3 2 1 1 1 1 2 1 1 1 1 1 0 1 2 1 0 2 2 1 2 2 1 1 1 1 1 2 3 3 3 3 2
14 12 10 10 10 9 9 7 5 5 4 3 2 1 1 0 1 2 1 1 1 1 1 1 2 2 1 1 1 1 1 1 1 1 1 1 1 1 1 1 2 2 2
14 13 11 10 10 10 10 8 7 5 4 3 3 3 2 2 1 2 1 2 1 0 1 1 1 2 2 1 1 0 1 1 2 1 1 1 0 0 1 1 0 1 3
15 15 14 11 10 11 10 9 7 6 5 4 3 2 1 1 1 1 1 2 1 1 0 0 1 1 1 1 2 1 1 0 1 2 1 1 1 1 1 1 1 1 1
14 15 14 12 10 10 10 10 8 6 5 4 3 2 2 1 0 0 1 1 1 1 0 0 1 1 1 1 1 1 1 1 1 2 3 1 1 1 1 1 2 2 2
13 14 13 12 10 10 10 11 9 7 5 4 4 3 2 2 2 1 1 1 0 1 0 1 0 1 1 1 1 1 1 2 1 1 2 2 2 1 1 1 2 1 1
13 13 13 13 11 11 10 11 10 8 7 5 4 3 2 2 1 1 1 1 1 1 1 0 0 1 1 2 1 2 2 1 2 3 2 2 2 2 1 1 1 1 2
13 14 14 13 12 11 11 11 10 8 7 6 5 4 3 1 1 1 1 1 0 0 1 0 0 0 1 2 2 2 2 1 2 2 2 2 3 3 2 2 2 2 2
11 11 12 13 12 11 11 11 10 8 7 6 5 5 3 2 2 1 0 0 1 1 1 1 0 0 0 1 2 2 2 2 2 2 2 2 3 3 2 2 2 2 2
11 12 11 11 10 10 11 11 10 9 7 6 5 4 4 3 3 2 1 0 1 1 1 1 1 1 1 1 1 2 2 2 3 3 2 2 3 3 3 3 2 2 2
8 10 10 10 10 10 9 9 10 9 8 6 5 5 4 3 3 2 1 1 1 0 0 1 1 1 1 1 1 2 2 2 3 2 2 2 2 2 3 3 3 2 1
9 9 10 9 9 9 8 8 8 9 8 7 6 5 4 3 2 2 2 1 1 0 0 0 1 2 2 2 1 2 3 3 2 2 1 2 2 2 2 2 2 2 2
8 9 9 8 7 7 7 7 6 6 7 7 6 5 4 3 3 2 2 1 1 1 0 1 1 1 1 2 2 2 3 3 2 2 1 1 1 1 2 2 1 1 1
8 8 8 8 7 7 6 6 5 5 5 6 6 5 4 3 3 2 2 1 1 1 1 1 1 2 1 2 3 3 3 2 2 2 2 1 2 3 2 2 2 1 0
8 8 8 8 7 7 7 6 5 5 5 5 4 4 4 3 3 2 2 1 1 1 1 1 2 2 1 2 2 3 3 2 2 2 2 1 1 2 3 2 3 2 0
5 7 8 7 7 7 7 7 5 5 5 4 4 4 3 3 3 3 2 2 2 1 1 2 1 0 1 3 3 3 2 2 2 2 2 2 2 2 1 1 1 2 1
7 7 7 7 7 8 8 6 5 5 5 5 4 3 4 3 3 3 2 2 1 1 1 2 1 0 1 2 2 4 2 1 1 1 1 1 2 3 1 1 0 0 0
6 6 7 7 7 7 8 7 5 5 5 4 4 3 3 3 3 2 2 2 1 2 2 1 1 0 0 0 1 2 2 1 1 1 1 1 1 2 2 1 1 1 1
6 5 5 6 7 7 7 7 6 5 4 4 3 3 3 3 3 3 2 2 2 2 2 1 1 1 1 2 1 0 2 2 1 1 1 2 1 1 1 1 2 2 2
5 5 5 5 5 6 7 6 5 5 4 4 3 2 2 3 3 2 2 2 2 2 3 2 2 2 2 3 3 1 1 3 3 2 1 1 1 1 2 3 2 3 3
5 5 5 5 5 5 6 5 4 4 4 4 3 3 2 2 2 2 2 2 2 2 3 2 3 3 3 2 3 3 2 3 4 3 1 0 1 3 4 3 4 4 4
5 4 5 5 4 4 4 5 4 4 4 4 3 2 2 1 1 1 1 1 2 2 2 2 2 2 2 2 3 4 4 4 3 3 4 3 4 5 4 6 6 4 3
4 4 4 4 4 4 4 4 4 3 4 3 3 3 3 3 2 1 2 1 1 1 2 1 2 1 1 1 0 1 2 2 3 3 4 5 5 5 4 4 4 3 3
3 4 4 4 4 4 4 4 4 4 3 3 3 4 3 3 3 3 2 2 2 2 2 1 1 1 1 0 2 1 1 2 2 3 3 3 3 3 3 3 3 3 3
2 3 4 4 5 5 4 3 4 4 4 4 4 3 3 3 3 3 2 0 1 3 2 2 1 1 2 2 1 1 2 3 3 2 3 3 3 2 2 2 2 2 2
Wind_Direction
155 153 152 148 145 141 140 141 140 132 137 145 174 182 186 175 146 133 141 142 215 326 357 337 330 332 350 323 319 314 294 264 267 290 278 243 221 202 206 214 203 190 185
152 156 157 155 152 148 148 149 152 147 155 154 168 183 171 171 157 125 134 153 155 278 290 294 300 338 340 317 304 301 310 300 219 225 289 270 233 240 218 195 200 201 188
159 159 163 163 158 155 158 158 152 152 155 155 159 157 139 184 135 160 170 169 181 211 311 350 335 327 303 269 269 283 294 301 294 225 197 244 255 287 247 217 186 187 184
160 159 165 168 162 160 158 150 150 151 151 168 169 175 182 185 186 189 181 156 166 248 307 345 325 323 325 328 298 102 298 308 299 279 219 220 155 235 284 301 252 204 190
160 160 164 166 164 163 158 151 148 153 157 174 164 189 192 194 172 157 155 173 168 217 298 8 322 314 315 344 344 8 347 354 306 296 296 245 231 243 230 253 249 263 220
155 156 158 158 165 160 155 150 148 153 162 172 167 196 190 172 16 187 141 207 173 177 228 151 326 314 331 346 312 308 309 321 311 308 308 294 270 239 247 255 240 236 249
154 155 156 157 163 159 156 150 151 158 164 167 167 186 186 196 210 250 198 254 230 130 54 32 316 301 322 325 339 317 306 317 314 291 298 309 303 288 271 261 259 246 238
155 157 158 157 162 159 154 151 155 162 167 168 166 164 178 213 213 234 253 249 269 32 99 85 112 351 343 333 350 323 303 323 306 294 298 291 289 297 273 251 258 260 244
155 156 158 159 163 163 158 155 154 160 165 165 159 160 181 193 205 191 228 284 302 106 89 66 99 297 315 329 329 304 309 317 288 294 298 287 290 279 271 251 225 219 246
152 151 156 160 163 162 156 151 150 154 159 155 166 166 172 167 178 219 235 325 348 12 54 26 343 304 306 301 296 297 300 304 300 286 309 305 301 306 286 272 258 247 244
151 151 153 150 150 156 153 151 152 157 158 156 162 151 160 167 171 177 196 167 341 12 14 314 321 311 302 284 283 289 296 299 300 299 300 302 307 322 318 305 288 268 260
145 142 142 145 152 151 153 157 155 159 159 158 156 154 155 164 177 181 188 171 196 243 192 290 321 319 323 315 308 302 310 305 303 307 316 312 301 294 301 315 313 312 288
148 142 142 145 148 147 148 154 158 161 161 161 158 156 160 165 170 169 158 158 171 207 287 304 309 320 326 332 321 307 307 305 311 314 318 319 327 318 308 303 313 313 307
144 144 141 140 140 137 135 140 152 155 155 153 154 153 164 169 166 172 160 165 178 185 234 292 282 295 318 344 331 318 311 310 316 320 315 325 339 321 316 301 306 320 348
154 146 141 136 132 132 133 138 144 141 140 145 156 156 166 167 159 169 165 182 220 213 193 242 277 277 261 345 342 317 312 321 325 327 336 4 48 52 29 344 3 358 359
152 145 138 137 140 143 144 143 146 141 133 139 150 150 157 165 172 171 168 201 230 263 251 248 268 297 321 352 355 332 320 333 330 336 340 353 77 72 65 45 40 50 17
143 147 142 146 151 151 147 154 152 150 146 150 156 153 159 167 173 182 171 205 222 233 264 278 279 38 12 352 345 332 309 337 331 341 346 330 6 66 82 49 41 47 14
154 147 148 158 164 158 151 151 159 156 156 158 165 172 174 179 175 178 183 205 217 229 251 261 253 264 8 17 356 333 289 301 315 339 346 360 17 360 17 297 190 163 285
140 143 157 163 151 149 147 149 164 159 160 166 178 189 188 181 181 189 199 213 222 244 253 236 214 218 58 106 352 345 299 290 294 281 2 360 19 350 350 314 302 281 285
130 138 146 138 135 140 146 151 160 157 164 168 174 177 181 180 191 204 217 218 220 229 234 203 196 206 196 174 173 352 300 293 285 225 145 79 29 327 328 303 299 300 309
115 120 122 123 131 138 139 147 155 162 159 154 154 165 172 188 189 189 204 221 227 213 221 206 199 192 195 177 182 188 291 322 317 298 266 164 168 283 271 269 271 273 292
113 126 127 124 126 132 141 150 155 149 142 148 158 170 178 208 180 173 205 217 231 229 226 212 210 198 184 160 174 197 244 301 313 308 309 269 257 284 275 258 255 268 290
129 130 127 125 129 134 148 157 148 143 147 153 160 170 176 194 177 202 217 222 214 235 224 216 232 217 173 152 165 204 241 279 298 322 333 304 260 262 260 248 246 252 259
131 128 134 144 141 138 142 141 139 148 158 167 174 186 192 188 174 204 206 219 222 246 255 246 253 246 160 120 160 240 251 270 287 296 295 280 263 259 263 252 239 233 248
134 140 145 153 148 141 137 146 153 156 170 187 197 212 209 190 194 202 214 198 176 194 229 269 291 290 279 277 200 219 262 274 284 278 262 261 255 256 251 243 229 223 235
141 153 160 163 157 151 154 161 168 175 191 210 211 218 219 206 207 201 197 110 197 181 181 175 192 188 159 161 157 228 269 274 284 270 271 271 264 267 279 289 278 249 242
Height
1509 1511 1514 1516 1517 1518 1519 1520 1522 1523 1524 1524 1526 1527 1527 1528 1528 1528 1528 1528 1528 1528 1527 1527 1527 1527 1526 1526 1526 1525 1526 1526 1527 1527 1528 1528 1529 1529 1529 1530 1531 1531 1532
1506 1510 1513 1515 1516 1517 1518 1519 1520 1522 1523 1524 1525 1526 1527 1527 1527 1527 1527 1527 1527 1527 1527 1526 1526 1526 1525 1525 1524 1524 1524 1525 1526 1526 1526 1527 1528 1527 1528 1528 1529 1530 1531
1503 1508 1511 1514 1515 1516 1517 1519 1520 1521 1522 1523 1524 1525 1526 1527 1527 1527 1527 1527 1526 1526 1526 1525 1525 1525 1524 1524 1523 1523 1523 1524 1524 1524 1525 1526 1526 1526 1527 1527 1527 1528 1529
1501 1505 1509 1512 1514 1515 1516 1518 1519 1520 1521 1522 1523 1524 1525 1526 1526 1526 1526 1526 1526 1525 1525 1525 1524 1524 1523 1523 1523 1522 1522 1522 1523 1523 1524 1525 1524 1525 1525 1526 1526 1527 1527
1498 1502 1506 1509 1512 1514 1515 1516 1518 1519 1520 1521 1522 1524 1524 1525 1525 1525 1525 1525 1525 1525 1524 1524 1523 1523 1522 1522 1521 1521 1521 1521 1521 1522 1522 1523 1523 1523 1524 1524 1525 1525 1525
1495 1499 1504 1507 1510 1512 1514 1515 1517 1518 1519 1520 1521 1522 1523 1524 1524 1524 1524 1525 1524 1524 1524 1523 1522 1522 1521 1521 1521 1520 1520 1520 1520 1520 1521 1521 1521 1521 1522 1522 1522 1523 1523
1492 1497 1501 1505 1508 1511 1513 1514 1516 1517 1518 1520 1520 1521 1522 1523 1523 1523 1524 1524 1524 1523 1523 1522 1521 1521 1521 1520 1520 1520 1519 1519 1519 1519 1519 1519 1519 1520 1520 1520 1520 1521 1521
1490 1495 1499 1503 1506 1509 1511 1513 1514 1516 1518 1519 1520 1520 1521 1522 1522 1523 1523 1523 1523 1523 1522 1522 1521 1520 1520 1520 1519 1519 1518 1518 1517 1518 1517 1517 1517 1517 1518 1518 1518 1518 1519
1488 1493 1497 1501 1504 1507 1510 1512 1514 1515 1517 1518 1519 1520 1520 1521 1522 1522 1522 1523 1523 1522 1521 1521 1520 1520 1519 1519 1518 1517 1517 1517 1516 1516 1516 1516 1516 1515 1515 1515 1516 1517 1517
1487 1491 1495 1499 1503 1506 1509 1511 1513 1514 1516 1517 1518 1519 1520 1520 1521 1521 1521 1521 1521 1521 1520 1520 1519 1519 1518 1518 1517 1516 1516 1515 1515 1514 1514 1513 1513 1513 1513 1514 1514 1514 1515
1486 1490 1494 1497 1501 1504 1507 1509 1512 1513 1515 1516 1517 1518 1519 1519 1520 1520 1520 1520 1520 1520 1519 1519 1518 1518 1517 1517 1516 1515 1515 1514 1513 1512 1512 1511 1511 1511 1511 1511 1512 1512 1512
1486 1490 1493 1496 1500 1503 1506 1508 1510 1512 1514 1515 1516 1517 1518 1518 1519 1519 1519 1519 1519 1518 1518 1517 1517 1516 1516 1515 1515 1514 1513 1512 1511 1511 1510 1510 1510 1509 1509 1509 1509 1510 1510
1486 1490 1493 1495 1498 1501 1504 1507 1509 1511 1513 1514 1515 1516 1517 1517 1518 1518 1518 1518 1517 1517 1517 1516 1515 1515 1514 1514 1513 1513 1512 1511 1510 1509 1508 1508 1507 1507 1507 1507 1507 1508 1508
1487 1490 1492 1495 1498 1501 1503 1506 1509 1510 1512 1513 1514 1514 1515 1516 1516 1517 1517 1516 1516 1516 1515 1515 1514 1514 1513 1512 1512 1511 1510 1509 1508 1508 1507 1506 1506 1505 1505 1505 1505 1506 1506
1487 1489 1492 1495 1498 1501 1503 1505 1507 1509 1510 1511 1512 1513 1514 1514 1515 1515 1515 1515 1515 1515 1514 1514 1513 1512 1512 1511 1510 1510 1509 1508 1507 1506 1506 1505 1505 1504 1503 1503 1503 1504 1504
1485 1488 1491 1494 1497 1499 1501 1504 1506 1507 1509 1510 1511 1512 1512 1513 1513 1514 1514 1514 1513 1513 1513 1512 1512 1511 1511 1510 1509 1508 1508 1507 1506 1505 1505 1504 1503 1502 1502 1502 1502 1502 1502
1485 1487 1490 1493 1496 1497 1500 1502 1504 1506 1507 1508 1510 1510 1511 1511 1512 1512 1512 1512 1512 1511 1511 1511 1511 1510 1509 1509 1508 1507 1506 1505 1504 1503 1503 1503 1502 1501 1501 1500 1500 1500 1500
1484 1487 1490 1493 1494 1496 1499 1502 1504 1505 1506 1506 1507 1508 1509 1510 1510 1510 1510 1510 1510 1510 1509 1509 1508 1508 1507 1507 1506 1506 1505 1504 1503 1502 1502 1501 1500 1500 1499 1499 1498 1498 1498
1484 1486 1489 1491 1493 1495 1497 1500 1502 1504 1505 1505 1506 1506 1507 1508 1508 1508 1508 1508 1508 1508 1508 1507 1507 1506 1505 1505 1505 1504 1503 1503 1502 1501 1500 1499 1499 1498 1498 1497 1497 1497 1497
1483 1486 1488 1490 1491 1493 1495 1497 1499 1501 1502 1503 1503 1504 1505 1505 1506 1506 1506 1506 1506 1506 1506 1506 1505 1505 1504 1503 1503 1502 1501 1501 1500 1500 1498 1498 1497 1497 1496 1496 1495 1495 1495
1484 1486 1488 1489 1491 1492 1494 1496 1498 1499 1500 1501 1502 1503 1503 1504 1504 1504 1504 1504 1504 1504 1504 1503 1503 1503 1502 1501 1501 1501 1500 1499 1498 1498 1497 1497 1496 1496 1495 1495 1494 1494 1494
1484 1486 1487 1488 1490 1492 1493 1495 1496 1498 1499 1500 1500 1501 1501 1502 1503 1502 1502 1502 1502 1502 1502 1501 1501 1500 1500 1499 1499 1498 1498 1497 1497 1496 1495 1495 1494 1494 1493 1493 1492 1492 1491
1485 1486 1487 1488 1490 1491 1492 1494 1495 1496 1497 1498 1499 1499 1500 1500 1500 1500 1500 1501 1500 1500 1500 1500 1499 1499 1498 1498 1497 1496 1496 1495 1494 1493 1493 1493 1492 1491 1491 1490 1490 1489 1489
1485 1485 1486 1488 1489 1490 1492 1493 1494 1495 1496 1496 1497 1497 1498 1498 1498 1499 1499 1499 1499 1499 1498 1498 1497 1497 1496 1496 1495 1493 1493 1492 1492 1491 1490 1490 1490 1489 1489 1488 1487 1487 1487
1484 1485 1486 1487 1488 1489 1490 1492 1493 1493 1494 1495 1496 1496 1496 1496 1496 1497 1497 1496 1496 1496 1496 1496 1495 1495 1494 1493 1493 1491 1490 1490 1489 1489 1488 1488 1487 1486 1486 1485 1485 1485 1484
1483 1484 1485 1486 1487 1488 1489 1490 1491 1491 1492 1493 1494 1494 1495 1495 1494 1494 1495 1494 1494 1494 1494 1494 1494 1492 1492 1491 1490 1490 1489 1488 1487 1487 1486 1486 1485 1485 1484 1483 1483 1483 1482